www.pogodaiklimat.ru

Погода и климат >> Архив погоды >> Индия >> Amritsar


ПОГОДА в Amritsar

  • Прогноз погоды в Amritsar
  • Монитор погоды в Amritsar
  • Климат города

АРХИВ ПОГОДЫ в Amritsar

Время (UTC), дата Ветер
(напр.,м/с)
 
Видим.   Явления Облачность Т
(С)
Тd
(С)
f
(%)
Тe
(С)
Тes
(С)
Комфортность P
(гПа)
Po
(гПа)
Тmin
(С)
Tmax
(С)
R
(мм)
R24
(мм)
S
(см)
00 11.11 штиль 0 2000 м дымка 3/3 1050 м
[Sc diur, vesp]
+13.2 +13.2 100 +13 +13 1015.1 1015.0
03 11.11 штиль 0 2000 м дымка 6/4 1050 м
[Sc diur, vesp Ac trans]
+15.0 +13.2 89 +15 +15 1016.8 1017.0 +12.2 +26.7
06 11.11 нст 1 2000 м мгла 6/4 1050 м
[Sc diur, vesp Ac trans]
+21.2 +12.4 57 +23 +28 комфорт 1017.1 1017.0
09 11.11 нст 1 2000 м мгла 8/4 1050 м
[Sc diur, vesp Ac As]
+23.4 +13.0 52 +26 +29 жарко 1014.7 1015.0
12 11.11 штиль 0 2000 м мгла 8/4 1050 м
[Sc diur, vesp Ac As]
+22.0 +13.4 58 +25 +25 комфорт 1014.6 1015.0 +24.2
15 11.11 штиль 0 2000 м мгла 8/4 1050 м
[Sc diur, vesp Ac As]
+18.0 +12.6 71 +18 +18 1016.2 1016.0
18 11.11 С 2 2000 м дымка 8/4 1050 м
[Sc diur, vesp Ac trans]
+18.4 +14.2 77 +19 +19 1015.9 1016.0
21 11.11 штиль 0 2000 м дымка 8/4 1050 м
[Sc diur, vesp Ac As]
+13.6 +11.7 88 +13 +13 1015.3 1015.0
00 12.11 штиль 0 1000 м дымка 8/4 1050 м
[Sc diur, vesp Ac As]
+12.4 +11.7 95 +12 +12 1014.2 1014.0
03 12.11 нст 1 1000 м дымка 6/3 1200 м
[Sc diur, vesp Ac trans]
+15.4 +12.1 81 +16 +17 1015.2 1015.0 +11.1 +24.2
06 12.11 нст 1 2000 м мгла 8/4 1200 м
[Sc diur, vesp Ac trans]
+21.6 +12.9 58 +24 +28 комфорт 1015.1 1015.0
09 12.11 нст 1 2000 м мгла 8/4 1200 м
[Sc diur, vesp Ac trans]
+24.2 +11.9 46 +26 +28 жарко 1012.6 1013.0
12 12.11 нст 1 2000 м мгла 4/3 1200 м
[Sc diur, vesp Ac trans]
+22.0 +11.7 52 +24 +24 комфорт 1011.6 1012.0 +25.5
15 12.11 штиль 0 2000 м дымка 4/0
[Ac trans]
+18.0 +13.4 74 +18 +18 1012.4 1012.0
18 12.11 штиль 0 2000 м дымка 4/0
[Ac trans]
+15.8 +12.5 81 +16 +16 1012.3 1012.0
21 12.11 нст 1 2000 м дымка 4/0
[Ac trans]
+13.6 +11.7 88 +14 +14 1011.8 1012.0
00 13.11 нст 2 2000 м дымка 4/0
[Ac trans]
+11.4 +10.2 92 +11 +11 1011.6 1012.0
03 13.11 нст 1 2000 м дымка 8/4 1200 м
[Sc diur, vesp Ac As]
+14.6 +11.2 80 +15 +15 1012.5 1013.0 +10.0 +25.5
06 13.11 СВ 5 2000 м мгла 9/4 1200 м
[Sc diur, vesp Ac As]
+21.6 +10.3 49 +23 +25 комфорт 1011.5 1012.0
09 13.11 нст 1 2000 м мгла 8/4 1200 м
[Sc diur, vesp Ac As]
+24.4 +10.4 41 +25 +28 комфорт 1009.5 1010.0
12 13.11 нст 1 2000 м мгла {дождь} 8/4 1200 м
[Sc diur, vesp Ac As]
+20.8 +12.7 60 +24 +24 комфорт 1010.1 1010.0 +25.5 0.0
15 13.11 С 3 2000 м мгла 6/4 1200 м
[Sc diur, vesp Ac As]
+19.4 +12.7 65 +21 +21 комфорт 1011.2 1011.0 0.0
18 13.11 нст 1 2000 м дымка 8/4 1200 м
[Sc diur, vesp Ac trans]
+16.4 +12.8 79 +17 +17 1011.2 1011.0 0.0
21 13.11 штиль 0 2000 м дымка 8/4 1200 м
[Sc diur, vesp Ac As]
+15.8 +13.7 87 +16 +16 1010.5 1011.0 0.0
00 14.11 штиль 0 2000 м дымка 6/4 1200 м
[Sc diur, vesp Ac As]
+12.6 +12.6 100 +12 +12 1011.3 1011.0 0.0
03 14.11 нст 1 2000 м дымка 6/4 1200 м
[Sc diur, vesp Ac As]
+15.0 +12.5 85 +15 +16 1012.6 1013.0 +11.9 +25.5 0.0
06 14.11 СЗ 3 2000 м мгла 8/4 1200 м
[Sc diur, vesp Ac As]
+21.0 +13.7 63 +24 +26 комфорт 1012.5 1013.0
09 14.11 СВ 6 2000 м мгла 9/4 1200 м
[Sc diur, vesp Ac As]
+20.0 +10.0 53 +21 +22 комфорт 1010.3 1010.0
12 14.11 З 7 2000 м гроза, ливневой дождь 9/4 1050 м
[Cb cap Ac As]
+17.2 +12.4 73 +16 +16 1013.3 1013.0 +22.6 0.0
15 14.11 нст 1 2000 м дымка {гроза, дождь} 9/4 1200 м
[Sc diur, vesp Ac As]
+16.2 +13.7 85 +17 +17 1014.8 1015.0 6
18 14.11 СВ 2 2000 м дымка {гроза, дождь} 6/3 1200 м
[Sc diur, vesp Ac As]
+14.6 +13.5 93 +14 +14 1014.5 1015.0 6
21 14.11 штиль 0 2000 м дымка 5/3 1200 м
[Sc diur, vesp Ac As]
+11.8 +11.0 95 +11 +11 1015.7 1016.0 6
00 15.11 штиль 0 2000 м дымка 4/3 1200 м
[Sc diur, vesp Ac As]
+12.8 +12.1 96 +12 +12 1016.6 1017.0 6
03 15.11 штиль 0 4000 м дымка ясно +13.0 +11.1 88 +12 +14 1019.0 1019.0 +10.0 +22.6 6
06 15.11 В 5 4000 м ясно +21.0 +11.7 55 +23 +28 комфорт 1019.2 1019.0
09 15.11 СЗ 3 4000 м ясно +23.4 +6.8 34 +24 +29 комфорт 1017.0 1017.0
12 15.11 штиль 0 4000 м мгла 3/0
[Ac trans]
+20.6 +12.1 58 +22 +22 комфорт 1016.1 1016.0 +24.3
15 15.11 штиль 0 4000 м дымка 1/0
[Ac trans]
+16.4 +12.8 79 +16 +16 1017.4 1017.0
18 15.11 штиль 0 2000 м дымка 3/0
[Ac trans]
+14.0 +11.4 84 +14 +14 1017.5 1018.0
21 15.11 штиль 0 2000 м дымка 3/0
[Ac trans]
+12.8 +11.3 91 +12 +12 1016.3 1016.0
00 16.11 штиль 0 2000 м дымка ясно +11.2 +10.4 95 +10 +10 1015.5 1016.0
03 16.11 штиль 0 2000 м дымка ясно +13.0 +9.1 77 +13 +14 1016.6 1017.0 +10.2 +24.3
06 16.11 СЗ 4 4000 м мгла 4/0
[Ac trans]
+20.4 +8.1 45 +22 +26 комфорт 1015.9 1016.0
09 16.11 З 4 4000 м мгла 1/0
[Ac trans]
+24.4 +9.4 39 +25 +29 комфорт 1012.5 1013.0
12 16.11 штиль 0 2000 м мгла ясно +21.4 +14.2 64 +24 +24 комфорт 1012.0 1012.0 +25.0
15 16.11 штиль 0 2000 м дымка ясно +15.4 +12.5 83 +15 +15 1013.6 1014.0
18 16.11 штиль 0 2000 м дымка ясно +14.2 +12.4 89 +14 +14 1014.3 1014.0
21 16.11 штиль 0 2000 м дымка ясно +11.6 +10.8 95 +11 +11 1013.7 1014.0
00 17.11 штиль 0 2000 м дымка ясно +10.8 +10.0 95 +10 +10 1013.0 1013.0
03 17.11 нст 1 2000 м дымка ясно +12.8 +10.9 88 +13 +14 1014.5 1015.0 +9.8 +25.0
06 17.11 нст 1 2000 м мгла 4/0
[Ac trans]
+22.2 +12.4 54 +25 +32 комфорт 1013.7 1014.0
09 17.11 штиль 0 4000 м мгла 8/4 1200 м
[Sc diur, vesp Ac trans]
+24.4 +11.3 44 +26 +29 жарко 1010.5 1011.0
12 17.11 штиль 0 2000 м мгла 8/4 1200 м
[Sc diur, vesp Ac trans]
+19.8 +11.9 60 +21 +21 комфорт 1010.3 1010.0 +25.2
15 17.11 штиль 0 2000 м дымка 4/1 1200 м
[Sc diur, vesp Ac trans]
+15.6 +12.3 81 +15 +15 1012.5 1013.0
18 17.11 штиль 0 2000 м дымка 6/3 1200 м
[Sc diur, vesp Ac trans]
+14.8 +11.9 83 +15 +15 1012.8 1013.0
21 17.11 штиль 0 2000 м дымка 3/0
[Ac trans]
+11.8 +10.3 91 +11 +11 1012.9 1013.0

 

Местоположение метеостанции Amritsar (Punjab, Индия): широта 31.63 долгота 74.87 высота над уровнем моря 234 м.

В архиве по умолчанию представлена погода в Amritsar за последнюю неделю. Архивные данные за месяц целиком и за предыдущие месяцы, начиная с января 2011 года, Вы можете получить, выбрав интересующий диапазон дат из раскрывающегося списка и нажав кнопку "Ввод!".


*Определитесь, кто Вы:
робот инопланетянин человек

Внимание! Время в таблицах - всемирное. Для получения местного времени необходимо прибавить поправку, которая в Amritsar равна 5.5 ч.

Смотрите также архив погоды в соседних городах и на ближайших метеорологических станциях:

Погода в Lahore City (Пакистан) (52 км)
Погода в Sialkot (Пакистан) (102 км)
Погода в Jammu (Jammu and Kashmir, Индия) (116 км)
Погода в Ludhiana (Punjab, Индия) (132 км)
Погода в Una (Himachal Pradesh, Индия) (134 км)
Погода в Kangra (Himachal Pradesh, Индия) (142 км)
Погода в Katra (Jammu and Kashmir, Индия) (151 км)
Погода в Dharamsala (Himachal Pradesh, Индия) (159 км)
Погода в Batote (Jammu and Kashmir, Индия) (169 км)
Погода в Faisal Abad (Пакистан) (169 км)

Пояснения к столбцам:

Ветер - указаны скорость ветра в м/с - средняя за 10 мин, порывы в срок и между сроками (в фигурных скобках) и направление, откуда дует ветер: С - северный, СВ - северо-восточный, В - восточный, ЮВ - юго-восточный, Ю - южный, ЮЗ - юго-западный, З - западный, СЗ - северо-западный.
Видимость - горизонтальная дальность видимости в метрах или километрах. При видимости от 1 до 10 км при отсутствии осадков обычно наблюдается дымка, при ухудшении видимости до 1 км и менее - туман. В сухую погоду видимость может ухудшаться дымом, пылью или мглою.
Явления - указаны атмосферные явления, наблюдавшиеся в срок или в последний час перед сроком; фигурными скобками обозначены явления, наблюдавшиеся между сроками (за 1-3 часа до срока); квадратными скобками обозначены град или гололедные отложения с указанием их диаметра в мм.
Облачность - указаны через наклонную черту общая и нижняя облачность в баллах и высота нижней границы облаков в метрах; квадратными скобками обозначены формы облаков: Ci - перистые, Cs - перисто-слоистые, Cc - перисто-кучевые, Ac - высококучевые, As - высокослоистые, Sc - слоисто-кучевые, Ns - слоисто-дождевые, Cu - кучевые, Cb - кучево-дождевые. Подробнее классификацию облаков см. в Атласе облаков (PDF).
T - Температура воздуха - температура, измеренная на высоте 2 м над землей.
Td - Температура точки росы - температура, при понижении до которой содержащийся в воздухе водяной пар достигнет насыщения.
f - Относительная влажность воздуха - влажноcть воздуха, измеренная на высоте 2 м над землей.
Te - Эффективная температура - температура, которую ощущает одетый по сезону человек в тени. Характеристика душности погоды. При расчете учитывается влияние влажности воздуха и скорости ветра на теплоощущения человека.
Tes - Эффективная температура на солнце - температура, которую ощущает человек, с поправкой на солнечный нагрев. Характеристика знойности погоды. Зависит от высоты солнца над горизонтом, облачности и скорости ветра. Ночью, в пасмурную погоду, а также при ветре 12 м/с и более поправка равна нулю.
P - Атмосферное давление - приведенное к уровню моря атмосферное давление.
Po - Атмосферное давление - измеренное на уровне метеостанции атмосферное давление.
Tmin - Минимальная температура - минимум температуры воздуха на высоте 2 м над землей.
Tmax - Максимальная температура - максимум температуры воздуха на высоте 2 м над землей.
R - Количество осадков - Количество выпавших осадков за период времени, мм. При наведении курсора мыши на число - период времени, за который выпало указанное количество осадков.
R24 - Количество осадков - Количество выпавших осадков за 24 часа, мм.
S - Снежный покров - Высота снежного покрова, см. При наведении курсора мыши на число - состояние снежного покрова и степень покрытия местности в баллах.